Flag Weather past 2 weeks in New Salem, North Dakota, U.S.A.

Now
11 °F

Overcast.


Feels Like: 11 °F
Forecast: 5 / 14 °F
Wind: No wind

Location: Bismarck Municipal Airport

Current Time: Nov 26, 2014 at 12:44:48 PM

Latest Report: Nov 26, 2014 at 11:52 AM


Visibility: 10 mi

Pressure: 30.49 "Hg

Humidity: 70%

Dew point: 3 °F

Location of New SalemLocation

Historic Weather in New Salem — Graph

°F

New Salem temperature yesterday

Maximum temperature yesterday: 33 °F (at 4:52 PM)
Minimum temperature yesterday: 17 °F (at 11:52 PM)
Average temperature yesterday: 28 °F

Past Weeks' High & Low Weather Summary

 TemperatureHumidityPressure
High47 °F (Nov 21, 2:52 PM)97% (Nov 22, 10:52 PM)30.73 "Hg (Nov 22, 10:52 PM)
Low-13 °F (Nov 14, 6:52 AM)29% (Nov 24, 1:52 PM)29.39 "Hg (Nov 22, 2:52 PM)
Average17 °F75%30.13 "Hg
* Reported Nov 11 10:52 AM — Nov 26 10:52 AM, New Salem, Weather by CustomWeather, © 2014

Note: Actual official high and low records may vary slightly from our data, if they occured in-between our weather recording intervals... More about our weather records

Advertising

New Salem weather history for previous 24 hours

 ConditionsComfort  
Time TempWeatherWind HumidityBarometerVisibility
10:52 AM
Nov 26
9 °FLight snow. Mostly cloudy.6 mph73%30.49 "Hg4 mi
10:01 AM8 °FLight snow. Mostly cloudy.6 mph76%30.36 "Hg4 mi
8:52 AM7 °FLight snow. Ice fog.3 mph83%30.45 "Hg2 mi
7:52 AM7 °FLight snow. Overcast.5 mph79%30.42 "Hg5 mi
6:52 AM6 °FOvercast.6 mph79%30.40 "Hg10 mi
5:52 AM6 °FOvercast.12 mph83%30.39 "Hg10 mi
4:52 AM8 °FMostly cloudy.10 mph76%30.37 "Hg10 mi
3:52 AM11 °FOvercast.8 mph81%30.36 "Hg10 mi
2:52 AM13 °FOvercast.12 mph77%30.32 "Hg10 mi
1:52 AM14 °FOvercast.12 mph80%30.28 "Hg10 mi
1:04 AM15 °FMostly cloudy.8 mph77%30.17 "Hg10 mi
12:52 AM15 °FOvercast.6 mph77%30.24 "Hg10 mi
11:52 PM
Nov 25
17 °FMostly cloudy.10 mph80%30.20 "Hg10 mi
10:52 PM19 °FMostly cloudy.18 mph77%30.12 "Hg10 mi
9:52 PM20 °FOvercast.21 mph82%30.06 "Hg10 mi
8:52 PM24 °FLight snow. Overcast.26 mph81%29.96 "Hg4 mi
7:52 PM32 °FMostly cloudy.17 mph96%29.84 "Hg7 mi
6:52 PM33 °FLight snow. Fog.10 mph96%29.80 "Hg6 mi
5:52 PM33 °FOvercast.No wind96%29.78 "Hg9 mi
4:52 PM33 °FMore clouds than sun.5 mph96%29.77 "Hg8 mi
3:52 PM32 °FLight snow. Ice fog.7 mph96%29.76 "Hg1 mi
2:59 PM32 °FLight snow. Ice fog.9 mph96%29.70 "Hg1 mi
2:04 PM32 °FLight snow. Ice fog.12 mph92%29.71 "Hg1 mi
1:52 PM31 °FLight snow. Ice fog.10 mph96%29.78 "Hg1 mi
1:03 PM31 °FSnow. Ice fog.12 mph92%29.73 "Hg1 mi
12:52 PM31 °FLight snow. Ice fog.13 mph92%29.80 "Hg1 mi
12:00 PM30 °FSnow. Ice fog.14 mph92%29.77 "Hg1 mi
Weather by CustomWeather, © 2014

See weather overviewHow to use our weather pages